Location: Boissi�res
(45.2500°N, 2.3667°E)
Time: 16:12:23
(UTC+00:00)

IRS-1C Rocket - Pass Details

Date: 03 March 2021
Orbit: 800 x 806 km, 99.0° (Epoch: 11 April)

Event Time Altitude Azimuth Distance (km) Brightness Sun altitude
Rises 18:04:21 0° 157° (SSE) 3,302 7.1 -5.0°
Reaches altitude 10° 18:06:40 10° 156° (SSE) 2,377 6.4 -5.4°
Maximum altitude 18:11:54 73° 73° (ENE) 845 4.1 -6.3°
Drops below altitude 10° 18:17:11 10° 349° (N) 2,396 6.7 -7.2°
Sets 18:19:32 0° 348° (NNW) 3,332 7.4 -7.6°
